THAICOM 4

Last updated on Sept. 20, 2020, 5:45 a.m. UTC

1 28786U 05028A   20263.90604966 -.00000378  00000-0  00000-0 0  9998
2 28786   0.0231 175.5517 0002579 354.7679 274.6103  1.00269060 31241
UTC
Height (km)
Latitude
Longitude
Inclination
Orbital Period
UTC large
Height (km)
Speed (km/s)
/
Latitude / Longitude
Inclination (degrees)
Orbital Period (minutes)
Azimuth
Elevation
Range (km)
Doppler Factor
iOS Compass Heading
iOS Angle

Next 30 passes for location: Hong Kong

Rise time Rise Azimuth (degrees) Set time Set Azimuth (degrees) Duration Max altitude (degrees)

No matching passes for this satellites